FW6605 Weather Reports


time (UTC)temp
C
wind
direction
speed
KPH
gust
KPH
rain 1hr
cm
rain 24hr
cm
rain mn
cm
humidity
%
barometer
mb
20260507211556 20 177 12.9 20.9 0.00 0.00 0.00 27 1015.7
20260507210056 20 211 12.9 20.9 0.00 0.00 0.00 25 1015.7
20260507204554 20 146 4.8 22.5 0.00 0.00 0.00 25 1016.1
20260507203056 20 250 6.4 20.9 0.00 0.00 0.00 24 1016.2
20260507201557 20 119 9.7 22.5 0.00 0.00 0.00 26 1016.5
20260507200058 19 98 14.5 24.1 0.00 0.00 0.00 27 1016.7
20260507194618 19 290 4.8 19.3 0.00 0.00 0.00 25 1017.0
20260507193056 19 254 6.4 17.7 0.00 0.00 0.00 24 1017.1
20260507191556 20 257 0.0 25.7 0.00 0.00 0.00 23 1017.2
20260507190057 18 254 6.4 17.7 0.00 0.00 0.00 24 1017.2
20260507184555 18 140 1.6 20.9 0.00 0.00 0.00 24 1017.4
20260507183055 18 171 3.2 16.1 0.00 0.00 0.00 26 1017.7
20260507181558 17 86 8.0 16.1 0.00 0.00 0.00 28 1018.2
20260507180058 17 91 9.7 16.1 0.00 0.00 0.00 28 1018.2
20260507174601 17 194 3.2 20.9 0.00 0.00 0.00 27 1018.4
20260507173132 17 360 3.2 16.1 0.00 0.00 0.00 28 1018.5
20260507171610 16 188 1.6 12.9 0.00 0.00 0.00 35 1018.6
20260507170116 16 0 3.2 16.1 0.00 0.00 0.00 37 1018.9
20260507164558 16 0 0.0 0.0 0.00 0.00 0.00 33 1019.1
20260507163055 15 0 0.0 0.0 0.00 0.00 0.00 35 1019.0
20260507161606 14 0 0.0 0.0 0.00 0.00 0.00 37 1019.1
20260507160057 13 0 0.0 0.0 0.00 0.00 0.00 37 1019.3
20260507154554 13 0 0.0 0.0 0.00 0.00 0.00 36 1019.3
20260507153059 12 0 0.0 0.0 0.00 0.00 0.00 45 1019.4
20260507151601 10 0 0.0 0.0 0.00 0.00 0.00 48 1019.5
20260507150100 8 0 0.0 0.0 0.00 0.00 0.00 59 1019.8
20260507144600 7 0 0.0 0.0 0.00 0.00 0.00 65 1019.6
20260507143104 6 0 0.0 0.0 0.00 0.00 0.00 73 1019.6
20260507141635 7 0 0.0 0.0 0.00 0.00 0.00 73 1019.5
20260507140059 6 0 0.0 0.0 0.00 0.00 0.00 77 1019.6
20260507134604 4 0 0.0 0.0 0.00 0.00 0.00 85 1019.7
20260507133106 2 0 0.0 0.0 0.00 0.00 0.00 85 1019.8
20260507131557 1 0 0.0 0.0 0.00 0.00 0.00 86 1019.7
20260507130057 0 0 0.0 0.0 0.00 0.00 0.00 88 1019.7
20260507124556 -1 0 0.0 0.0 0.00 0.00 0.00 88 1019.6
20260507123057 -1 0 0.0 1.6 0.00 0.00 0.00 88 1019.5
20260507121553 -2 0 0.0 0.0 0.00 0.00 0.00 89 1019.5
20260507120104 -3 0 0.0 0.0 0.00 0.00 0.00 88 1019.4
20260507114608 -3 0 0.0 0.0 0.00 0.00 0.00 89 1019.6
20260507113055 -3 0 0.0 0.0 0.00 0.00 0.00 89 1019.4
20260507111558 -3 0 0.0 0.0 0.00 0.00 0.00 89 1019.6
20260507104628 -3 0 0.0 0.0 0.00 0.00 0.00 89 1019.6
20260507103053 -2 0 0.0 0.0 0.00 0.00 0.00 90 1019.7
20260507101602 -2 0 0.0 0.0 0.00 0.00 0.00 90 1020.0
20260507094559 -2 0 0.0 0.0 0.00 0.00 0.00 90 1020.2
20260507093055 -1 0 0.0 0.0 0.00 0.00 0.00 90 1020.4
20260507091557 -2 0 0.0 0.0 0.00 0.00 0.00 90 1020.5
20260507090059 -2 0 0.0 0.0 0.00 0.00 0.00 89 1020.7
20260507084601 -1 0 0.0 0.0 0.00 0.00 0.00 90 1020.8
20260507083056 -1 0 0.0 0.0 0.00 0.00 0.00 90 1020.7
20260507081555 -1 0 0.0 0.0 0.00 0.00 0.00 90 1020.8
20260507080053 -1 0 0.0 9.7 0.00 0.00 0.00 90 1021.1
20260507074606 -1 0 0.0 0.0 0.00 0.00 0.00 90 1021.4
20260507073133 -1 0 0.0 0.0 0.00 0.00 0.00 90 1021.5
20260507071555 -1 0 0.0 0.0 0.00 0.00 0.00 90 1021.4
20260507070058 -2 0 0.0 0.0 0.00 0.00 0.00 90 1021.7
20260507064610 -2 0 0.0 0.0 0.00 0.00 0.00 89 1021.6
20260507063105 -2 0 0.0 0.0 0.00 0.00 0.00 88 1021.5
20260507061556 -1 0 0.0 1.6 0.00 0.00 0.00 88 1021.6
20260507060100 -1 0 1.6 8.0 0.00 0.00 0.00 89 1021.7
20260507054556 -2 0 0.0 0.0 0.00 0.00 0.00 88 1021.5
20260507053053 -1 0 0.0 0.0 0.00 0.00 0.00 88 1021.5
20260507051556 -1 0 0.0 0.0 0.00 0.00 0.00 89 1021.4
20260507050057 -1 0 0.0 0.0 0.00 0.00 0.00 87 1021.5
20260507044601 0 0 0.0 0.0 0.00 0.00 0.00 87 1021.5
20260507043101 0 0 0.0 0.0 0.00 0.00 0.00 88 1021.5
20260507041601 0 0 0.0 0.0 0.00 0.00 0.00 89 1021.6
20260507040107 0 0 0.0 0.0 0.00 0.00 0.00 88 1021.4
20260507034619 0 0 0.0 0.0 0.00 0.00 0.00 86 1021.4
20260507033108 0 0 0.0 0.0 0.00 0.00 0.00 86 1021.5
20260507031601 1 0 0.0 4.8 0.00 0.00 0.00 86 1021.4
20260507030105 1 0 0.0 9.7 0.00 0.00 0.00 85 1021.2
20260507024604 1 0 0.0 9.7 0.00 0.00 0.00 85 1021.3
20260507023054 1 0 0.0 8.0 0.00 0.00 0.00 84 1021.1
20260507021604 2 154 1.6 6.4 0.00 0.00 0.00 84 1021.0
20260507020059 2 360 4.8 9.7 0.00 0.00 0.00 81 1020.9
20260507014557 3 360 8.0 16.1 0.00 0.00 0.00 79 1020.9
20260507013114 4 360 12.9 17.7 0.00 0.00 0.00 76 1021.0
20260507011557 5 360 9.7 14.5 0.00 0.00 0.00 76 1020.9
20260507010057 5 360 8.0 14.5 0.00 0.00 0.00 76 1020.9
20260507004554 4 360 8.0 16.1 0.00 0.00 0.00 75 1020.8
20260507003054 4 360 8.0 14.5 0.00 0.00 0.00 76 1020.8
20260507001611 4 360 6.4 16.1 0.00 0.00 0.00 75 1020.9
20260507000057 5 360 8.0 16.1 0.00 0.00 0.00 76 1020.9
20260506234609 4 360 9.7 17.7 0.00 0.00 0.00 78 1020.8
20260506233108 4 360 12.9 19.3 0.00 0.00 0.00 78 1020.8
20260506231601 5 360 11.3 17.7 0.00 0.00 0.00 77 1020.8
20260506230058 5 360 9.7 17.7 0.00 0.00 0.00 72 1020.7
20260506224613 4 360 0.0 3.2 0.00 0.00 0.00 69 1020.7
20260506223059 4 0 0.0 0.0 0.00 0.00 0.00 71 1020.7
20260506221556 4 0 0.0 1.6 0.00 0.00 0.00 72 1020.7
20260506220108 4 0 0.0 6.4 0.00 0.00 0.00 76 1020.9
20260506214554 3 0 1.6 8.0 0.00 0.00 0.00 77 1020.8
20260506213058 3 360 1.6 6.4 0.00 0.00 0.00 79 1020.8